DB0HOL-4 Weather Reports


time (UTC)temp
F
wind
direction
speed
knots
gust
knots
rain 1hr
in
rain 24hr
in
rain mn
in
humidity
%
barometer
mb
20260507092637 42 47 0.0 0.0 0.00 1.71 0.15 99 1012.1
20260507085637 42 19 0.0 0.0 0.00 1.71 0.15 99 1011.8
20260507082637 42 33 0.0 0.0 0.00 1.71 0.15 99 1011.5
20260507075636 42 42 0.0 0.0 0.00 1.71 0.15 99 1011.1
20260507072636 42 50 0.0 1.7 0.00 1.71 0.15 99 1010.8
20260507065637 42 51 0.9 2.6 0.00 1.71 0.15 99 1010.4
20260507062637 42 46 0.0 0.0 0.00 1.71 0.15 99 1010.1
20260507055637 43 44 0.0 0.0 0.00 1.70 0.14 99 1009.8
20260507052637 43 25 0.0 0.0 0.00 1.69 0.13 99 1009.4
20260507045637 43 40 1.7 2.6 0.00 1.68 0.12 99 1009.1
20260507042637 43 1 2.6 2.6 0.00 1.67 0.11 99 1008.8
20260507035636 43 14 0.9 1.7 0.00 1.67 0.11 99 1008.8
20260507032636 43 356 3.5 4.3 0.00 1.66 0.10 99 1008.8
20260507025637 43 2 1.7 2.6 0.00 1.65 0.09 99 1008.4
20260507022637 44 357 0.9 2.6 0.00 1.64 0.08 99 1008.1
20260507015637 44 306 0.0 0.9 0.00 1.63 0.07 99 1007.7
20260507012637 44 10 1.7 2.6 0.00 1.61 0.05 99 1007.7
20260507005637 44 16 2.6 3.5 0.00 1.60 0.04 99 1007.4
20260507002636 44 9 1.7 3.5 0.00 1.60 0.04 99 1007.4
20260506235637 44 10 2.6 4.3 0.00 1.59 0.03 99 1007.4
20260506232636 44 354 2.6 4.3 0.00 1.57 0.01 99 1007.4
20260506225637 44 15 0.9 1.7 0.00 1.57 0.01 99 1007.1
20260506222637 44 5 0.9 1.7 0.00 1.56 1.04 99 1007.1
20260506215637 44 351 1.7 2.6 0.00 1.56 1.04 99 1007.1
20260506212637 44 3 0.0 0.9 0.00 1.56 1.04 99 1006.7
20260506205636 44 8 0.9 1.7 0.00 1.55 1.03 99 1006.7
20260506202637 44 340 0.9 1.7 0.00 1.52 1.00 99 1006.4
20260506195637 44 345 0.0 0.0 0.00 1.51 0.99 99 1006.0
20260506192636 44 340 2.6 2.6 0.00 1.51 0.99 99 1005.7
20260506185636 45 356 1.7 2.6 0.00 1.50 0.98 99 1005.7
20260506182727 45 16 0.0 0.0 0.00 1.50 0.98 99 1005.4
20260506182637 45 16 0.0 0.0 0.00 1.50 0.98 99 1005.4
20260506175637 45 359 1.7 2.6 0.00 1.49 0.97 99 1005.4
20260506172637 45 1 2.6 3.5 0.00 1.48 0.96 99 1005.4
20260506165637 45 13 0.0 0.0 0.00 1.48 0.96 99 1005.0
20260506162637 45 1 0.9 1.7 0.00 1.48 0.96 99 1005.0
20260506155636 45 357 0.0 0.9 0.00 1.47 0.95 99 1005.0
20260506152637 45 27 0.0 0.9 0.00 1.47 0.95 99 1005.0
20260506145637 45 30 0.0 0.9 0.00 1.47 0.95 99 1005.0
20260506142637 45 23 0.0 0.0 0.00 1.47 0.95 99 1004.7
20260506135637 45 5 0.9 1.7 0.00 1.46 0.94 99 1005.0
20260506132636 45 355 1.7 2.6 0.00 1.45 0.93 99 1004.7
20260506125637 45 0 1.7 3.5 0.00 1.45 0.93 99 1004.4
20260506122636 44 3 4.3 4.3 0.00 1.45 0.93 99 1004.4
20260506115637 44 5 1.7 2.6 0.00 1.45 0.93 99 1004.4
20260506112636 44 7 0.9 1.7 0.00 1.45 0.93 99 1004.4
20260506105637 44 25 2.6 3.5 0.00 1.45 0.93 99 1004.0
20260506102637 44 14 1.7 2.6 0.00 1.45 0.93 99 1003.7
20260506095637 45 43 0.0 0.9 0.00 1.44 0.92 99 1003.3